This is the latest recevied weather packets stored in our database for station/object KB3KBR-WX. If no packets are shown the sender has not sent any weather packets the latest 10 day(s).
| Time | Temp. | Humidity | Pressure | Rain* | Wind** | Luminosity | Snow |
|---|---|---|---|---|---|---|---|
| 1777825707 | 11.67° C | 45% | 1012.1 hPa | 0 mm | - | - | - |
| 1777825377 | 11.11° C | 45% | 1012.3 hPa | 0 mm | - | - | - |
| 1777825208 | 11.11° C | 44% | 1012 hPa | 0 mm | - | - | - |
| 1777825047 | 11.11° C | 44% | 1012 hPa | 0 mm | - | - | - |
| 1777824747 | 11.11° C | 44% | 1012.2 hPa | 0 mm | - | - | - |
| 1777824494 | 11.11° C | 45% | 1012.2 hPa | 0 mm | - | - | - |
| 1777824417 | 11.11° C | 45% | 1012.2 hPa | 0 mm | - | - | - |
| 1777824117 | 10.56° C | 45% | 1012.1 hPa | 0 mm | - | - | - |
| 1777823787 | 10.56° C | 45% | 1012.2 hPa | 0 mm | - | - | - |
| 1777823704 | 10.56° C | 47% | 1012.3 hPa | 0 mm | - | - | - |
| 1777823487 | 10.56° C | 47% | 1012.3 hPa | 0 mm | - | - | - |
| 1777822829 | 10.56° C | 45% | 1012.3 hPa | 0 mm | - | - | - |
| 1777822527 | 10° C | 47% | 1012.3 hPa | 0 mm | - | - | - |
| 1777821912 | 9.44° C | 45% | 1012.4 hPa | 0 mm | - | - | - |
| 1777821867 | 9.44° C | 45% | 1012.4 hPa | 0 mm | - | - | - |
| 1777821542 | 9.44° C | 46% | 1012.5 hPa | 0 mm | - | - | - |
| 1777821241 | 9.44° C | 47% | 1012.5 hPa | 0 mm | - | - | - |
| 1777820581 | 9.44° C | 48% | 1012.5 hPa | 0 mm | - | - | - |
| 1777820249 | 8.89° C | 48% | 1012.5 hPa | 0 mm | - | - | - |
| 1777820068 | 8.89° C | 50% | 1012.6 hPa | 0 mm | - | - | - |
| 1777819917 | 8.89° C | 50% | 1012.6 hPa | 0 mm | - | - | - |
| 1777819617 | 9.44° C | 50% | 1012.7 hPa | 0 mm | - | - | - |
| 1777819466 | 8.89° C | 54% | 1012.7 hPa | 0 mm | - | - | - |
| 1777819287 | 8.89° C | 54% | 1012.7 hPa | 0 mm | - | - | - |
| 1777819204 | 8.33° C | 54% | 1012.7 hPa | 0 mm | - | - | - |
* Rain latest hour (hover to see other rain measurements)
** Current wind speed in m/s (hover to see current wind gust speed)